Tracking 35237 objects as of 5-Sep-2026
HD Live streaming from Space Station
objects crossing your sky now

INTERCOSMOS 8


INTERCOSMOS 8 is no longer on orbit


NORAD ID: 6291
Int'l Code: 1972-094A
Launch date: November 30, 1972
Source: Commonwealth of Independent States (former USSR) (CIS)
Launch site: PLESETSK MISSILE AND SPACE COMPLEX (PKMTR)
Decay date: 1973-03-02
Your satellite tracking list
Your tracking list is empty




NASA's NSSDC Master Catalog

Two Line Element Set (TLE):
1 06291U 72094  A 73061.39864669  .10736438 +58279-1 +00000-0 0  9992
2 06291 070.9490 150.0319 0039923 264.6557 095.0076 16.44834166014419
Source of the keplerian elements: AFSPC